Regional Weather Roundup
Issued by NWS

Home | Current Version | Previous Version | Graphics & Text | Print | Product List | Glossary On
Versions: 1 2 3 4 5 6 7 8 9 10 11 12 13 14 15 16 17 18 19 20 21 22 23 24 25 26 27 28 29 30 31 32 33 34 35 36 37 38 39 40 41 42 43 44 45 46 47 48 49 50
000
ASUS43 KMKX 270400
RWRWI

WISCONSIN REGIONAL WEATHER ROUNDUP
NATIONAL WEATHER SERVICE MILWAUKEE/SULLIVAN WI
1100 PM CDT THU MAR 26 2015

NOTE: "FAIR" INDICATES FEW OR NO CLOUDS BELOW 12,000 FEET WITH NO
SIGNIFICANT WEATHER AND/OR OBSTRUCTIONS TO VISIBILITY.

WIZ001-002-006>008-014>016-023>028-270500-
NORTHWEST WISCONSIN

CITY           SKY/WX    TMP DP  RH WIND       PRES   REMARKS
SUPERIOR ARPT  CLEAR     24   1  37 N12       30.24R WCI  13
ASHLAND        CLEAR     19   8  62 N8        30.22R WCI   9
HAYWARD        CLEAR     19   7  59 CALM      30.17S
SIREN          CLEAR     24   1  37 N5        30.20R WCI  18
CUMBERLAND     CLEAR     23   5  46 N6        30.16S WCI  16
RICE LAKE      CLEAR     24   5  43 N7        30.18S WCI  16
CHETEK         CLEAR     24   6  44 N5        30.17R WCI  19
LADYSMITH      CLEAR     21  10  62 NE8       30.17R WCI  11
EAU CLAIRE     NOT AVBL
MENOMONIE      CLEAR     26  10  48 N6        30.18R WCI  20
NEW RICHMOND   CLEAR     25   7  46 N6        30.19R WCI  18
OSCEOLA        CLEAR     26   5  40 N5        30.22R WCI  21
$$

WIZ003>005-009-010-017-018-270500-
NORTH CENTRAL WISCONSIN

CITY           SKY/WX    TMP DP  RH WIND       PRES   REMARKS
MANITOWISH WTR CLOUDY    11   7  85 CALM      30.11S
ARBOR VITAE    PTCLDY    11   6  79 CALM      30.11R
WOODRUFF       PTCLDY    11   6  79 CALM      30.11R
RHINELANDER    PTCLDY     7   3  84 CALM      30.11S
EAGLE RIVER    PTCLDY     9   4  80 CALM      30.10R
LAND O LAKES   MOCLDY     6   3  87 CALM      30.10S
PHILLIPS       PTCLDY    14   6  71 CALM      30.13R
TOMAHAWK       CLEAR      9   3  76 CALM      30.13S
MEDFORD        CLEAR     14   5  67 N6        30.13R WCI   5
MERRILL        CLEAR     15   5  64 CALM      30.13S
$$

WIZ029-030-035-036-043>047-270500-
CENTRAL WISCONSIN

CITY           SKY/WX    TMP DP  RH WIND       PRES   REMARKS
WAUSAU         CLEAR     18   6  59 N6        30.13R WCI  10
MOSINEE        CLEAR     19   9  63 N13G18    30.14R WCI   7
MARSHFIELD     CLEAR     21   7  54 NE9       30.14R WCI  11
STEVENS POINT  CLEAR     19   6  57 N12G18    30.14R WCI   6
WAUPACA        CLOUDY    27   9  46 NW8       30.13S WCI  18
WAUTOMA        NOT AVBL
WISC RAPIDS    CLEAR     21   7  54 N12       30.15R WCI   9
CAMP DOUGLAS   CLEAR     25  13  59 N7        30.14R WCI  17
$$

WIZ011>013-019>022-031-037>040-048>050-270500-
NORTHEAST WISCONSIN

CITY           SKY/WX    TMP DP  RH WIND       PRES   REMARKS
ANTIGO         CLEAR     14   4  64 N7        30.11S WCI   4
SHAWANO        CLOUDY    24  11  55 N16       30.15R WCI  11
OCONTO         PTCLDY    20   4  49 N16       30.15R WCI   6
STURGEON BAY   PTCLDY    19   7  58 N17       30.14R WCI   4
GREEN BAY      CLOUDY    25  12  58 N18       30.13R WCI  11
MANITOWOC      NOT AVBL
APPLETON       CLOUDY    27  12  54 N13       30.11R WCI  16
CLINTONVILLE   CLOUDY    27  10  50 N14       30.13R WCI  15
OSHKOSH        CLOUDY    27  13  55 N14       30.10S WCI  16
$$

WIZ032>034-041-042-053>061-270500-
SOUTHWEST WISCONSIN

CITY           SKY/WX    TMP DP  RH WIND       PRES   REMARKS
LA CROSSE      CLOUDY    32  17  54 N6        30.15R WCI  26
SPARTA         PTCLDY    27  15  60 CALM      30.15R
VIROQUA        CLOUDY    29  18  64 N6        30.10S WCI  23
BOSCOBEL       CLOUDY    32  18  56 N5        30.13R WCI  27
PRAIRIE DU CHI CLOUDY    32  19  58 NW6       30.13R WCI  27
PLATTEVILLE    CLOUDY    32  23  69 N9        30.10R WCI  24
$$

WIZ056-057-062-063-064-067-068-270500-
SOUTH CENTRAL WISCONSIN

CITY           SKY/WX    TMP DP  RH WIND       PRES   REMARKS
REEDSBURG      MOCLDY    27  13  56 N7        30.12R WCI  19
BARABOO/DELLS  CLEAR     26  14  61 N3        30.11R
LONE ROCK      NOT AVBL
MINERAL POINT  CLOUDY    32  18  55 N12G17    30.09R WCI  23
MADISON        CLOUDY    28  14  55 N10       30.11R WCI  19
MIDDLETON      CLOUDY    31  18  57 N9        30.10S WCI  23
WATERTOWN      CLOUDY    29  19  65 N10       30.09R WCI  20
MONROE         CLOUDY    30  23  74 N10       30.08R WCI  21
JANESVILLE     CLOUDY    32  18  55 N9        30.09R WCI  24
$$

WIZ051-052-058>065-066-070>072-270500-
SOUTHEAST WISCONSIN

CITY           SKY/WX    TMP DP  RH WIND       PRES   REMARKS
MILWAUKEE      CLOUDY    31  16  54 N12       30.08R WCI  22
WAUKESHA       CLOUDY    28  18  64 N8        30.08S WCI  20
MILWAUKEE/TIMM CLOUDY    30  14  51 N9        30.08S WCI  22
RACINE         CLOUDY    31  22  69 N12G21    30.09R WCI  22
BURLINGTON     CLOUDY    29  16  58 N9        30.08R WCI  20
KENOSHA        CLOUDY    31  18  58 N10       30.08R WCI  22
FOND DU LAC    CLOUDY    28  14  55 N14       30.10R WCI  17
SHEBOYGAN      LGT SNOW  26  18  71 N10       30.09R WCI  16
WEST BEND      CLOUDY    28  19  69 N9        30.08R WCI  20
JUNEAU         CLOUDY    28  16  62 N15       30.10R WCI  16
$$

LSZ147-162-270500-
LAKE SUPERIOR

STATION/POSITION TIME  TEMP    WIND        PRES    WAVE
                       AIR SEA DIR/SP/G            HT/PER
                 (UTC) (F)     (DEG/KT/KT) (MB)    (FT/S)
DEVILS ISLAND    0300   24     360/ 21/ 24 1024.5R
PORT WING        0340   26      10/ 18/ 24 1023.7R
SAXON HARBOR     0300   27     360/ 14/ 20 1022.0R
$$

LMZ867-665-643>646-270500-
LAKE MICHIGAN

STATION/POSITION TIME  TEMP    WIND        PRES    WAVE
                       AIR SEA DIR/SP/G            HT/PER
                 (UTC) (F)     (DEG/KT/KT) (MB)    (FT/S)
NORTHPORT PIER   0308   21     330/ 20/ 25 1020.0S
SISTER BAY       0332   20      20/ 23/ 29   N/A
KEWAUNEE LAKESHO 0300   25     360/ 11/ 18 1018.5R
SHEBOYGAN LAKESH 0300   28      10/ 18/ 20 1019.6R
PORT WASHINGTON  0300   31      10/  6/ 14 1019.3R
MILWAUKEE LAKESH 0300   32     340/  8/ 13   N/A
KENOSHA   LAKESH 0300   32     350/ 13/ 18 1018.3R
$$

TC  - TEMPERATURE IN CELSIUS
VSB - VISIBILITY IN STATUTE MILES
WCI - WIND CHILL INDEX
HX  - HEAT INDEX



USA.gov is the U.S. government's official web portal to all federal, state and local government web resources and services.